Weather History for KJST - September, 2011

Change the Weather History Date:

Monday, September 5, 2011

  Actual Average Record
Temperature  
Mean Temperature 58 °F 64 °F  
Max Temperature 64 °F 72 °F 94 °F (1953)
Min Temperature 53 °F 56 °F 42 °F (1902)
Degree Days  
Heating Degree Days 6 3  
Month to date heating degree days 12  
Since 1 July heating degree days 54  
Cooling Degree Days 0 2  
Month to date cooling degree days 10  
Year to date cooling degree days 370  
Growing Degree Days 8 (Base 50)    
Moisture  
Dew Point 59 °F    
Average Humidity 99    
Maximum Humidity 100    
Minimum Humidity 93    
Precipitation  
Precipitation 0.96 in 0.12 in 1.62 in (1926)
Month to date precipitation 0.57  
Year to date precipitation 24.86  
Sea Level Pressure  
Sea Level Pressure 29.88 in    
Wind  
Wind Speed 7 mph (WNW)    
Max Wind Speed 17 mph    
Max Gust Speed 26 mph    
Visibility 5 miles    
Events Fog , Rain    
T = Trace of Precipitation, MM = Missing Value Source: NWS Daily Summary

Daily Weather History Graph

Daily Weather History Graph

Search for Another Location

Airport or City:

Trip Planner

Search our weather history database for the weather conditions in past years. The results will help you decide how hot, cold, wet, or windy it might be!

Date:

Astronomy

Sep. 05, 2011 Rise Set
Actual Time 6:46 AM EDT 7:41 PM EDT
Civil Twilight 6:18 AM EDT 8:08 PM EDT
Nautical Twilight 5:45 AM EDT 8:41 PM EDT
Astronomical Twilight 5:11 AM EDT 9:15 PM EDT
Moon 3:25 PM EDT (9/5) 12:00 AM EDT (9/5)
Length of Visible Light 13h 50m
Length of Day
12h 54m
First Quarter, 60% of the Moon is Illuminated
Sep 5
First Quarter
Sep 12
Full
Sep 20
Last Quarter
Sep 27
New
Oct 3
First Quarter

Hourly Weather History & Observations

Time (EDT) Temp. Dew Point Humidity Pressure Visibility Wind Dir Wind Speed Gust Speed Precip Events Conditions
12:04 AM 62.6 °F 62.6 °F 100% 29.92 in 4.0 mi SW 5.8 mph - 0.01 in Rain Light Rain
12:11 AM 62.6 °F 62.6 °F 100% 29.92 in 7.0 mi SW 6.9 mph - 0.01 in Rain Light Rain
12:54 AM 64.0 °F 63.0 °F 96% 29.83 in 10.0 mi Calm Calm - 0.03 in Rain Light Rain
1:54 AM 63.0 °F 63.0 °F 100% 29.83 in 7.0 mi SSW 4.6 mph - 0.00 in Rain Light Rain
2:24 AM 62.6 °F 62.6 °F 100% 29.86 in 5.0 mi WSW 4.6 mph - 0.00 in   Mostly Cloudy
2:36 AM 62.6 °F 62.6 °F 100% 29.86 in 2.0 mi SW 4.6 mph - 0.00 in   Mostly Cloudy
2:43 AM 62.6 °F 62.6 °F 100% 29.86 in 2.0 mi SSW 5.8 mph - 0.00 in   Overcast
2:46 AM 62.6 °F 62.6 °F 100% 29.86 in 3.0 mi SSW 5.8 mph - 0.00 in   Overcast
2:54 AM 63.0 °F 63.0 °F 100% 29.82 in 4.0 mi SSW 4.6 mph - 0.00 in   Overcast
3:06 AM 62.6 °F 62.6 °F 100% 29.87 in 1.8 mi SW 5.8 mph - N/A   Overcast
3:17 AM 62.6 °F 62.6 °F 100% 29.87 in 0.5 mi SW 4.6 mph - N/A Fog Fog
3:45 AM 62.6 °F 62.6 °F 100% 29.86 in 9.0 mi SW 4.6 mph - N/A   Overcast
3:54 AM 63.0 °F 62.1 °F 97% 29.82 in 10.0 mi SSW 4.6 mph - N/A   Overcast
4:54 AM 63.0 °F 63.0 °F 100% 29.82 in 8.0 mi SSW 4.6 mph - 0.00 in   Mostly Cloudy
5:11 AM 62.6 °F 62.6 °F 100% 29.86 in 8.0 mi South 5.8 mph - N/A   Mostly Cloudy
5:18 AM 62.6 °F 62.6 °F 100% 29.86 in 7.0 mi SSW 5.8 mph - N/A   Overcast
5:39 AM 62.6 °F 62.6 °F 100% 29.86 in 8.0 mi SSW 4.6 mph - N/A   Overcast
5:47 AM 62.6 °F 62.6 °F 100% 29.86 in 8.0 mi SSW 6.9 mph - N/A   Overcast
5:54 AM 62.1 °F 62.1 °F 100% 29.83 in 7.0 mi SSW 5.8 mph - N/A   Overcast
6:33 AM 62.6 °F 62.6 °F 100% 29.86 in 6.0 mi SSW 6.9 mph - 0.01 in Rain Light Rain
6:54 AM 62.1 °F 62.1 °F 100% 29.83 in 6.0 mi SSW 6.9 mph - 0.02 in Rain Light Rain
7:54 AM 62.6 °F 62.6 °F 100% 29.85 in 6.0 mi SSW 5.8 mph - N/A Rain Light Rain
8:42 AM 62.6 °F 62.6 °F 100% 29.85 in 6.0 mi SSW 5.8 mph - 0.00 in Rain Light Rain
8:54 AM 62.1 °F 62.1 °F 100% 29.83 in 5.0 mi WSW 6.9 mph - 0.00 in   Overcast
9:03 AM 62.6 °F 62.6 °F 100% 29.86 in 2.5 mi WSW 5.8 mph - N/A   Overcast
9:14 AM 62.6 °F 62.6 °F 100% 29.86 in 1.5 mi SW 8.1 mph - 0.00 in Rain Light Rain
9:22 AM 62.6 °F 62.6 °F 100% 29.86 in 3.0 mi SW 6.9 mph - 0.00 in Rain Light Rain
9:42 AM 62.6 °F 62.6 °F 100% 29.86 in 2.0 mi SSW 6.9 mph - 0.01 in Rain Light Rain
9:54 AM 62.1 °F 62.1 °F 100% 29.84 in 2.5 mi SW 6.9 mph - 0.02 in Rain Light Rain
10:16 AM 62.6 °F 62.6 °F 100% 29.86 in 4.0 mi SSW 6.9 mph - 0.00 in Rain Light Rain
10:54 AM 63.0 °F 63.0 °F 100% 29.84 in 7.0 mi SSW 6.9 mph - 0.00 in Rain Light Rain
11:31 AM 64.4 °F 64.4 °F 100% 29.86 in 7.0 mi SW 6.9 mph - 0.00 in Rain Light Rain
11:41 AM 64.4 °F 64.4 °F 100% 29.86 in 6.0 mi SSW 5.8 mph - 0.00 in Rain Light Rain
11:54 AM 64.9 °F 64.0 °F 97% 29.84 in 8.0 mi SW 9.2 mph - 0.00 in   Overcast
12:54 PM 62.1 °F 62.1 °F 100% 29.84 in 2.5 mi North 12.7 mph 16.1 mph 0.04 in Rain Heavy Rain
1:07 PM 60.8 °F 60.8 °F 100% 29.86 in 7.0 mi North 11.5 mph - 0.01 in Rain Light Rain
1:32 PM 59.0 °F 59.0 °F 100% 29.87 in 2.0 mi North 15.0 mph - 0.06 in Rain Rain
1:44 PM 59.0 °F 59.0 °F 100% 29.87 in 3.0 mi NNW 16.1 mph - 0.08 in Rain Rain
1:52 PM 59.0 °F 57.2 °F 94% 29.88 in 2.5 mi NNW 16.1 mph - 0.10 in Rain Rain
1:54 PM 57.9 °F 57.9 °F 100% 29.86 in 2.5 mi North 16.1 mph 21.9 mph 0.11 in Rain Heavy Rain
2:03 PM 55.4 °F 55.4 °F 100% 29.88 in 1.5 mi North 17.3 mph 26.5 mph 0.06 in Rain Heavy Rain
2:10 PM 55.4 °F 55.4 °F 100% 29.88 in 1.5 mi North 13.8 mph - 0.11 in Rain Heavy Rain
2:17 PM 55.4 °F 55.4 °F 100% 29.88 in 1.2 mi North 10.4 mph - 0.15 in Rain Heavy Rain
2:54 PM 55.0 °F 53.1 °F 93% 29.88 in 2.5 mi North 11.5 mph 23.0 mph 0.28 in Rain Rain
2:57 PM 55.4 °F 53.6 °F 94% 29.89 in 3.0 mi North 10.4 mph 21.9 mph 0.01 in Rain Rain
3:39 PM 55.4 °F 53.6 °F 94% 29.90 in 3.0 mi North 12.7 mph 19.6 mph 0.06 in Rain Rain
3:47 PM 55.4 °F 53.6 °F 94% 29.90 in 2.5 mi North 9.2 mph - 0.08 in Rain Rain
3:54 PM 55.0 °F 54.0 °F 96% 29.88 in 3.0 mi North 8.1 mph - 0.09 in Rain Rain
4:16 PM 55.4 °F 55.4 °F 100% 29.89 in 3.0 mi North 8.1 mph - 0.03 in Rain Rain
4:25 PM 55.4 °F 55.4 °F 100% 29.90 in 4.0 mi North 6.9 mph - 0.04 in Rain Light Rain
4:32 PM 55.4 °F 55.4 °F 100% 29.90 in 3.0 mi North 6.9 mph - 0.05 in Rain Rain
4:54 PM 55.9 °F 55.0 °F 97% 29.88 in 4.0 mi North 9.2 mph - 0.07 in Rain Light Rain
5:02 PM 55.4 °F 55.4 °F 100% 29.90 in 5.0 mi NNE 10.4 mph - 0.00 in Rain Light Rain
5:20 PM 55.4 °F 55.4 °F 100% 29.90 in 4.0 mi North 5.8 mph - 0.02 in Rain Light Rain
5:46 PM 55.4 °F 55.4 °F 100% 29.90 in 5.0 mi North 9.2 mph - 0.04 in Rain Light Rain
5:54 PM 55.9 °F 55.0 °F 97% 29.89 in 5.0 mi NNE 9.2 mph - 0.04 in Rain Light Rain
6:54 PM 55.0 °F 54.0 °F 96% 29.89 in 3.0 mi NNE 11.5 mph - 0.07 in Rain Light Rain
7:04 PM 55.4 °F 55.4 °F 100% 29.91 in 3.0 mi NNE 9.2 mph - 0.01 in Rain Rain
7:54 PM 55.0 °F 54.0 °F 96% 29.91 in 5.0 mi NNE 8.1 mph - 0.05 in Rain Light Rain
8:26 PM 53.6 °F 53.6 °F 100% 29.92 in 6.0 mi NNE 10.4 mph - 0.03 in Rain Light Rain
8:54 PM 54.0 °F 53.1 °F 97% 29.92 in 6.0 mi NE 10.4 mph - 0.05 in Rain Light Rain
9:16 PM 53.6 °F 53.6 °F 100% 29.92 in 5.0 mi NE 9.2 mph - 0.03 in Rain Light Rain
9:34 PM 53.6 °F 53.6 °F 100% 29.94 in 7.0 mi NE 10.4 mph - 0.04 in Rain Light Rain
9:54 PM 53.1 °F 53.1 °F 100% 29.94 in 9.0 mi NE 5.8 mph - 0.05 in Rain Light Rain
10:29 PM 53.6 °F 53.6 °F 100% 29.94 in 7.0 mi NE 6.9 mph - 0.01 in Rain Light Rain
10:54 PM 53.1 °F 53.1 °F 100% 29.94 in 7.0 mi NE 8.1 mph - 0.01 in Rain Light Rain
11:20 PM 53.6 °F 53.6 °F 100% 29.96 in 7.0 mi North 5.8 mph - 0.01 in Rain Light Rain
11:54 PM 53.1 °F 53.1 °F 100% 29.94 in 8.0 mi NNE 4.6 mph - 0.03 in Rain Light Rain